Location: Newark
(58.8333°N, 23.5833°E)
Time: 16:22:35
(UTC+00:00)

Tiros 1 despin weight - Pass Details

Date: 23 November 2019
Orbit: 594 x 642 km, 48.2° (Epoch: 10 December)

Event Time Altitude Azimuth Distance (km) Brightness Sun altitude
Rises 10:22:15 0° 203° (SSW) 2,822 ? 10.8°
Reaches altitude 10° 10:26:10 10° 168° (SSE) 1,925 ? 10.8°
Maximum altitude 10:27:26 11° 151° (SSE) 1,854 ? 10.8°
Drops below altitude 10° 10:28:42 10° 134° (SE) 1,929 ? 10.8°
Sets 10:32:38 0° 100° (E) 2,841 ? 10.7°
